Blythe, CA

1:22 AM PDT on April 23, 2018 (GMT -0700)
Blythe

Weather History for KBLH - April, 2014

Change the Weather History Date:

Tuesday, April 1, 2014

  Actual Average Record
Temperature  
Mean Temperature 65 °F -  
Max Temperature 77 °F 77 °F 98 °F (2011)
Min Temperature 55 °F 51 °F 45 °F (1972)
Growing Degree Days 15 (Base 50)    
Moisture  
Dew Point 34 °F    
Average Humidity 33    
Maximum Humidity 47    
Minimum Humidity 19    
Precipitation  
Precipitation 0.00 in - - ()
Sea Level Pressure  
Sea Level Pressure 29.84 in    
Wind  
Wind Speed 14 mph (SW)    
Max Wind Speed 25 mph    
Max Gust Speed 37 mph    
Visibility 10 miles    
Events      
Averages and records for this station are not official NWS values.
T = Trace of Precipitation, MM = Missing Value Source: NWS Daily Summary

Daily Weather History Graph

Daily Weather History Graph

Search for Another Location

Airport or City:

Astronomy

Apr. 01, 2014 Rise Set
Actual Time 6:26 AM PDT 6:59 PM PDT
Civil Twilight 6:01 AM PDT 7:24 PM PDT
Nautical Twilight 5:31 AM PDT 7:54 PM PDT
Astronomical Twilight 5:01 AM PDT 8:24 PM PDT
Moon 7:37 AM PDT (4/1) 9:19 PM PDT (4/1)
Length of Visible Light 13h 23m
Length of Day
12h 33m
Waxing Crescent, 5% of the Moon is Illuminated
Apr 1
Waxing Crescent
Apr 7
First Quarter
Apr 15
Full
Apr 22
Last Quarter
Apr 28
New

Hourly Weather History & Observations

Time (PDT) Temp. Dew Point Humidity Pressure Visibility Wind Dir Wind Speed Gust Speed Precip Events Conditions
12:52 AM 62.1 °F 35.1 °F 37% 29.85 in 10.0 mi SSW 10.4 mph 20.7 mph N/A   Clear
1:52 AM 60.1 °F 36.0 °F 41% 29.85 in 10.0 mi SSW 12.7 mph - N/A   Clear
2:52 AM 57.9 °F 35.1 °F 42% 29.84 in 10.0 mi WSW 6.9 mph - N/A   Clear
3:52 AM 57.0 °F 37.0 °F 47% 29.83 in 10.0 mi WSW 24.2 mph - N/A   Clear
4:52 AM 55.9 °F 36.0 °F 47% 29.83 in 10.0 mi SW 19.6 mph - N/A   Clear
5:52 AM 55.0 °F 35.1 °F 47% 29.84 in 10.0 mi SSW 8.1 mph - N/A   Clear
6:52 AM 55.9 °F 33.1 °F 42% 29.86 in 10.0 mi SW 10.4 mph - N/A   Clear
7:52 AM 57.9 °F 34.0 °F 41% 29.88 in 10.0 mi SSW 6.9 mph - N/A   Clear
8:52 AM 63.0 °F 35.1 °F 35% 29.90 in 10.0 mi West 15.0 mph - N/A   Clear
9:52 AM 66.0 °F 34.0 °F 30% 29.91 in 10.0 mi WSW 6.9 mph - N/A   Clear
10:52 AM 68.0 °F 35.1 °F 30% 29.91 in 10.0 mi West 13.8 mph 19.6 mph N/A   Clear
11:52 AM 73.0 °F 37.0 °F 27% 29.89 in 10.0 mi West 17.3 mph 25.3 mph N/A   Clear
12:52 PM 73.9 °F 36.0 °F 25% 29.87 in 10.0 mi WSW 18.4 mph 27.6 mph N/A   Partly Cloudy
1:52 PM 75.0 °F 35.1 °F 23% 29.85 in 10.0 mi WSW 21.9 mph 35.7 mph N/A   Clear
2:52 PM 75.0 °F 30.0 °F 19% 29.83 in 9.0 mi SW 20.7 mph 36.8 mph N/A   Partly Cloudy
3:52 PM 73.0 °F 37.0 °F 27% 29.81 in 10.0 mi SSW 21.9 mph 33.4 mph N/A   Clear
4:52 PM 72.0 °F 35.1 °F 26% 29.81 in 10.0 mi SW 18.4 mph 28.8 mph N/A   Partly Cloudy
5:52 PM 70.0 °F 30.9 °F 24% 29.81 in 10.0 mi WSW 23.0 mph - N/A   Clear
6:52 PM 66.9 °F 25.0 °F 21% 29.80 in 10.0 mi WSW 25.3 mph 32.2 mph N/A   Clear
7:52 PM 64.9 °F 24.1 °F 21% 29.80 in 10.0 mi WSW 13.8 mph - N/A   Clear
8:52 PM 62.1 °F 32.0 °F 32% 29.81 in 10.0 mi West 17.3 mph - N/A   Clear
9:52 PM 60.1 °F 32.0 °F 35% 29.82 in 10.0 mi WSW 16.1 mph - N/A   Clear
10:52 PM 57.9 °F 32.0 °F 37% 29.83 in 10.0 mi WSW 15.0 mph - N/A   Clear
11:52 PM 57.0 °F 33.1 °F 40% 29.82 in 10.0 mi SW 16.1 mph - N/A   Clear